DW6561 Weather Reports


Display with metric or nautical units.
time (UTC)temp
F
wind
direction
speed
MPH
gust
MPH
rain 1hr
in
rain 24hr
in
rain mn
in
humidity
%
barometer
mb
20260904173037 66 308 0.0 0.0 0.00 0.00 0.00 51 1014.3
20260904171530 65 73 0.0 0.0 0.00 0.00 0.00 55 1014.3
20260904170016 63 88 0.0 0.0 0.00 0.00 0.00 58 1014.2
20260904164520 62 103 0.0 0.0 0.00 0.00 0.00 61 1014.2
20260904163018 61 336 0.0 0.0 0.00 0.00 0.00 62 1014.2
20260904161505 60 337 0.0 0.0 0.00 0.00 0.00 63 1014.2
20260904160012 59 74 0.0 0.0 0.00 0.00 0.00 66 1014.1
20260904154509 58 296 0.0 0.0 0.00 0.00 0.00 68 1014.0
20260904153003 57 327 0.0 0.0 0.00 0.00 0.00 68 1013.9
20260904151503 56 202 0.0 0.0 0.00 0.00 0.00 70 1013.7
20260904150014 56 202 0.0 1.0 0.00 0.00 0.00 71 1013.6
20260904144514 54 179 0.0 5.0 0.00 0.00 0.00 73 1013.4
20260904143015 53 174 2.0 5.0 0.00 0.00 0.00 74 1013.3
20260904141505 52 156 3.0 8.0 0.00 0.00 0.00 74 1012.8
20260904140008 51 176 4.0 8.0 0.00 0.00 0.00 77 1012.6
20260904134506 51 159 0.0 0.0 0.00 0.00 0.00 77 1012.5
20260904133021 51 159 0.0 2.0 0.00 0.00 0.00 78 1012.3
20260904131527 51 183 0.0 6.0 0.00 0.00 0.00 78 1012.1
20260904130025 51 123 1.0 4.0 0.00 0.00 0.00 78 1012.1
20260904124510 51 58 0.0 0.0 0.00 0.00 0.00 77 1012.1
20260904123013 51 58 0.0 0.0 0.00 0.00 0.00 77 1012.1
20260904121511 51 183 0.0 0.0 0.00 0.00 0.00 77 1011.9
20260904120029 52 183 0.0 1.0 0.00 0.00 0.00 77 1011.7
20260904114536 52 188 0.0 0.0 0.00 0.00 0.00 72 1011.7
20260904113026 53 188 0.0 1.0 0.00 0.00 0.00 72 1011.5
20260904111522 53 188 0.0 6.0 0.00 0.00 0.00 71 1011.3
20260904110020 53 181 3.0 9.0 0.00 0.00 0.00 70 1011.1
20260904104513 53 186 3.0 6.0 0.00 0.00 0.00 70 1011.0
20260904103032 54 94 0.0 4.0 0.00 0.00 0.00 68 1010.9
20260904101519 54 136 1.0 5.0 0.00 0.00 0.00 68 1010.8
20260904100003 54 176 1.0 7.0 0.00 0.00 0.00 66 1010.6
20260904094508 53 155 2.0 6.0 0.00 0.00 0.00 63 1010.4
20260904093012 53 147 2.0 5.0 0.00 0.00 0.00 63 1010.4
20260904091517 54 215 0.0 2.0 0.00 0.00 0.00 64 1010.4
20260904090016 55 98 0.0 1.0 0.00 0.00 0.00 61 1010.3
20260904084504 56 92 0.0 0.0 0.00 0.00 0.00 58 1010.3
20260904083008 57 113 0.0 5.0 0.00 0.00 0.00 54 1010.3
20260904081506 56 191 0.0 5.0 0.00 0.00 0.00 56 1010.2
20260904080021 56 178 1.0 5.0 0.00 0.00 0.00 56 1010.4
20260904074523 57 273 0.0 0.0 0.00 0.00 0.00 55 1010.6
20260904073003 57 190 0.0 2.0 0.00 0.00 0.00 55 1010.4
20260904071513 56 124 0.0 3.0 0.00 0.00 0.00 56 1010.3
20260904070015 56 117 0.0 3.0 0.00 0.00 0.00 57 1010.3
20260904064508 56 34 0.0 1.0 0.00 0.00 0.00 57 1010.3
20260904063030 56 136 0.0 0.0 0.00 0.00 0.00 57 1010.1
20260904061508 57 128 0.0 0.0 0.00 0.00 0.00 56 1009.9
20260904060013 58 128 0.0 0.0 0.00 0.00 0.00 55 1009.8
20260904054523 58 128 0.0 0.0 0.00 0.00 0.00 54 1009.8
20260904053014 59 117 0.0 2.0 0.00 0.00 0.00 51 1009.8
20260904051511 59 104 0.0 5.0 0.00 0.00 0.00 50 1009.8
20260904050018 59 136 2.0 7.0 0.00 0.00 0.00 49 1009.9
20260904044555 60 182 2.0 7.0 0.00 0.00 0.00 48 1009.9
20260904043024 61 152 1.0 7.0 0.00 0.00 0.00 47 1009.8
20260904041526 61 136 1.0 4.0 0.00 0.00 0.00 48 1009.7
20260904040003 61 142 0.0 3.0 0.00 0.00 0.00 48 1009.3
20260904034502 61 143 0.0 3.0 0.00 0.00 0.00 48 1009.4
20260904033002 61 128 0.0 3.0 0.00 0.00 0.00 48 1009.2
20260904031504 62 159 0.0 4.0 0.00 0.00 0.00 49 1009.3
20260904030008 62 189 1.0 3.0 0.00 0.00 0.00 48 1009.3
20260904024505 63 115 1.0 3.0 0.00 0.00 0.00 47 1009.0
20260904023003 64 134 0.0 4.0 0.00 0.00 0.00 46 1008.8
20260904021509 64 153 0.0 2.0 0.00 0.00 0.00 44 1008.9
20260904020003 65 169 0.0 0.0 0.00 0.00 0.00 44 1009.0
20260904014508 65 169 0.0 0.0 0.00 0.00 0.00 42 1009.1
20260904013010 65 169 0.0 0.0 0.00 0.00 0.00 42 1009.2
20260904011503 66 176 0.0 2.0 0.00 0.00 0.00 41 1009.3
20260904010004 66 200 0.0 3.0 0.00 0.00 0.00 40 1009.3
20260904004502 66 200 0.0 2.0 0.00 0.00 0.00 40 1009.2
20260904003001 66 200 0.0 0.0 0.00 0.00 0.00 40 1009.3
20260904001518 66 200 0.0 0.0 0.00 0.00 0.00 41 1009.5
20260904000003 67 200 0.0 2.0 0.00 0.00 0.00 39 1009.6
20260903234507 67 127 0.0 5.0 0.00 0.00 0.00 38 1009.6
20260903233009 67 169 0.0 5.0 0.00 0.00 0.00 39 1009.6
20260903231506 67 167 0.0 6.0 0.00 0.00 0.00 39 1009.7
20260903230003 67 115 2.0 6.0 0.00 0.00 0.00 39 1009.9
20260903224503 67 256 0.0 4.0 0.00 0.00 0.00 40 1009.8
20260903223013 67 132 3.0 10.0 0.00 0.00 0.00 38 1010.1
20260903221516 67 169 3.0 9.0 0.00 0.00 0.00 38 1010.3
20260903220012 67 211 3.0 7.0 0.00 0.00 0.00 39 1010.3
20260903214511 67 177 0.0 3.0 0.00 0.00 0.00 40 1010.5
20260903213005 67 194 0.0 6.0 0.00 0.00 0.00 39 1010.7
20260903211513 67 286 0.0 5.0 0.00 0.00 0.00 41 1010.8
20260903210020 66 158 1.0 7.0 0.00 0.00 0.00 42 1010.9
20260903204523 67 188 2.0 5.0 0.00 0.00 0.00 42 1011.0
20260903203017 67 223 4.0 8.0 0.00 0.00 0.00 40 1010.8
20260903201513 67 175 1.0 10.0 0.00 0.00 0.00 42 1011.0
20260903200007 67 194 2.0 5.0 0.00 0.00 0.00 42 1011.1
20260903194524 67 195 0.0 7.0 0.00 0.00 0.00 44 1011.2
20260903193028 66 144 1.0 5.0 0.00 0.00 0.00 45 1011.4
20260903191536 66 219 2.0 5.0 0.00 0.00 0.00 47 1011.4
20260903190003 65 123 2.0 6.0 0.00 0.00 0.00 51 1011.6
20260903184502 65 192 2.0 6.0 0.00 0.00 0.00 50 1011.7
20260903183007 66 178 2.0 7.0 0.00 0.00 0.00 50 1011.8
20260903181508 65 151 3.0 9.0 0.00 0.00 0.00 49 1011.8
20260903180002 65 186 4.0 11.0 0.00 0.00 0.00 50 1011.7
20260903174503 64 238 0.0 10.0 0.00 0.00 0.00 51 1011.6